This is the latest recevied weather packets stored in our database for station/object N8QF. If no packets are shown the sender has not sent any weather packets the latest 10 day(s).
| Time | Temp. | Humidity | Pressure | Rain* | Wind** | Luminosity | Snow |
|---|---|---|---|---|---|---|---|
| 1778087643 | 14.44° C | 60% | 1012.4 hPa | 11.94 mm | - | - | - |
| 1778087343 | 14.44° C | 58% | 1012.4 hPa | 11.94 mm | - | - | - |
| 1778087043 | 13.89° C | 54% | 1012.5 hPa | 11.94 mm | - | - | - |
| 1778086743 | 13.89° C | 55% | 1012.6 hPa | 11.94 mm | - | - | - |
| 1778086443 | 13.89° C | 56% | 1012.6 hPa | 11.94 mm | - | - | - |
| 1778086142 | 13.89° C | 61% | 1012.6 hPa | 11.94 mm | - | - | - |
| 1778085842 | 13.89° C | 58% | 1012.5 hPa | 11.94 mm | - | - | - |
| 1778085542 | 13.89° C | 61% | 1012.6 hPa | 11.94 mm | - | - | - |
| 1778085334 | 13.89° C | 58% | 1012.5 hPa | 11.94 mm | - | - | - |
| 1778085242 | 13.89° C | 58% | 1012.5 hPa | 11.94 mm | - | - | - |
| 1778084941 | 13.33° C | 56% | 1012.5 hPa | 11.94 mm | - | - | - |
| 1778084641 | 13.33° C | 58% | 1012.5 hPa | 11.94 mm | - | - | - |
| 1778084342 | 13.33° C | 58% | 1012.4 hPa | 11.94 mm | - | - | - |
| 1778084039 | 13.33° C | 59% | 1012.3 hPa | 11.94 mm | - | - | - |
| 1778083739 | 13.33° C | 58% | 1012.4 hPa | 11.94 mm | - | - | - |
| 1778083438 | 12.78° C | 65% | 1012.4 hPa | 11.94 mm | - | - | - |
| 1778083138 | 12.78° C | 63% | 1012.3 hPa | 11.94 mm | - | - | - |
| 1778082838 | 12.78° C | 65% | 1012.3 hPa | 11.94 mm | - | - | - |
| 1778082538 | 12.78° C | 62% | 1012.3 hPa | 11.94 mm | - | - | - |
| 1778082237 | 12.78° C | 63% | 1012.6 hPa | 11.94 mm | - | - | - |
| 1778081934 | 12.22° C | 65% | 1012.8 hPa | 11.94 mm | - | - | - |
| 1778081634 | 12.78° C | 66% | 1012.6 hPa | 11.94 mm | - | - | - |
| 1778081334 | 12.22° C | 66% | 1012.6 hPa | 11.94 mm | - | - | - |
| 1778081034 | 12.22° C | 64% | 1012.5 hPa | 11.94 mm | - | - | - |
| 1778080734 | 12.22° C | 68% | 1012.3 hPa | 11.94 mm | - | - | - |
* Rain since midnight (hover to see other rain measurements)
** Current wind speed in m/s (hover to see current wind gust speed)